Regional Weather Roundup
Issued by NWS

Home | Current Version | Previous Version | Text Only | Print | Product List | Glossary On
Versions: 1 2 3 4 5 6 7 8 9 10 11 12 13 14 15 16 17 18 19 20 21 22 23 24 25 26 27 28 29 30 31 32 33 34 35 36 37 38 39 40 41 42 43 44 45 46 47 48 49 50
000
ASUS46 KSEW 201210
RWRWA

WASHINGTON REGIONAL WEATHER ROUNDUP
NATIONAL WEATHER SERVICE SEATTLE WA
500 AM PDT WED AUG 20 2014

NOTE:"FAIR" INDICATES FEW OR NO CLOUDS BELOW 12,000 FEET WITH NO
SIGNIFICANT WEATHER AND/OR OBSTRUCTIONS TO VISIBILITY.

WAZ505-507>509-201300-
SEATTLE, TACOMA, EVERETT, AND VICINITY

CITY           SKY/WX    TMP DP  RH WIND       PRES   REMARKS
EVERETT        MOCLDY    58  51  78 SW7       29.90R
6HR MIN TEMP:  58; 6HR MAX TEMP:  61;

BOEING FIELD   CLOUDY    61  52  72 S9G18     29.89S
6HR MIN TEMP:  61; 6HR MAX TEMP:  67;

RENTON         CLOUDY    60  53  77 SE5       29.89S
6HR MIN TEMP:  60; 6HR MAX TEMP:  68;

SEATAC AIRPORT CLOUDY    58  51  78 S10       29.90S
6HR MIN TEMP:  58; 6HR MAX TEMP:  64;

JBLM-MCCHORD   CLOUDY    58  51  76 SW8       29.91R
6HR MIN TEMP:  57; 6HR MAX TEMP:  62;

PUYALLUP       NOT AVBL
JBLM-FT LEWIS  CLOUDY    58  50  76 S8        29.90S
6HR MIN TEMP:  57; 6HR MAX TEMP:  61;

TACOMA NARROWS CLOUDY    57  51  80 S8        29.90S
6HR MIN TEMP:  57; 6HR MAX TEMP:  61;

$$

WAZ001-503-506-510-514-515-201300-
NORTH INTERIOR

CITY           SKY/WX    TMP DP  RH WIND       PRES   REMARKS
BELLINGHAM     CLOUDY    61  52  72 S14       29.86R
6HR MIN TEMP:  60; 6HR MAX TEMP:  63;

FRIDAY HARBOR  CLOUDY    55  51  86 SW7       29.87R
6HR MIN TEMP:  54; 6HR MAX TEMP:  59;

EASTSOUND      CLOUDY    57  52  82 S10       29.84R
PORT ANGELES   PTCLDY    55  51  86 W6        29.87S
6HR MIN TEMP:  54; 6HR MAX TEMP:  56;

NAS WHIDBEY    CLOUDY    58  52  80 S5        29.89R
6HR MIN TEMP:  57; 6HR MAX TEMP:  59;

BURLINGTON     CLOUDY    57  55  94 CALM      29.89R
$$

WAZ020-022-039-040-504-511-512-201300-
SOUTHWEST INTERIOR

CITY           SKY/WX    TMP DP  RH WIND       PRES   REMARKS
SHELTON        PTCLDY    55  49  80 W10       29.87R
6HR MIN TEMP:  55; 6HR MAX TEMP:  57;

OLYMPIA        CLOUDY    57  50  77 SW7       29.91R
6HR MIN TEMP:  56; 6HR MAX TEMP:  59;

CHEHALIS       CLOUDY    54  54 100 CALM      29.92S
KELSO          CLOUDY    55  50  82 CALM      29.97S
6HR MIN TEMP:  55; 6HR MAX TEMP:  63;

VANCOUVER      CLOUDY    61  51  70 NE3       29.93S
6HR MIN TEMP:  60; 6HR MAX TEMP:  66;

SCAPPOOSE, OR  CLOUDY    60  53  77 VRB3      29.92S
6HR MIN TEMP:  55; 6HR MAX TEMP:  63;

PORTLAND, OR   CLOUDY    62  53  72 CALM      29.94R
6HR MIN TEMP:  61; 6HR MAX TEMP:  66;

$$

WAZ021-516-517-201300-
WASHINGTON COAST

CITY           SKY/WX    TMP DP  RH WIND       PRES   REMARKS
FORKS          CLOUDY    57  54  89 CALM      29.89S FOG
6HR MIN TEMP:  57; 6HR MAX TEMP:  58;

HOQUIAM        CLOUDY    60  54  80 W9        29.91S
6HR MIN TEMP:  59; 6HR MAX TEMP:  60;

ASTORIA, OR    PTCLDY    54  53  97 S3        29.93S
6HR MIN TEMP:  53; 6HR MAX TEMP:  58;

$$

WAZ019-023-024-040-518-519-201300-
CASCADE MOUNTAINS AND COLUMBIA GORGE

CITY           SKY/WX    TMP DP  RH WIND       PRES   REMARKS
STAMPEDE PASS  NOT AVBL
TROUTDALE, OR  CLOUDY    62  52  69 N3        29.93R
6HR MIN TEMP:  61; 6HR MAX TEMP:  67;

THE DALLES, OR CLEAR     64  49  57 NW18G31   29.84R
6HR MIN TEMP:  64; 6HR MAX TEMP:  74;

$$

WAZ026-027-041>044-520-521-201300-
EAST SLOPES

CITY           SKY/WX    TMP DP  RH WIND       PRES   REMARKS
OMAK           MOCLDY    66  48  52 NW7       29.72R
6HR MIN TEMP:  65; 6HR MAX TEMP:  76;

WENATCHEE      CLOUDY    71  50  47 NW12      29.73S
6HR MIN TEMP:  71; 6HR MAX TEMP:  76;

ELLENSBURG     MOCLDY    65  52  62 NW15G24   29.78R
6HR MIN TEMP:  65; 6HR MAX TEMP:  67;

YAKIMA         MOCLDY    60  52  74 CALM      29.77S
6HR MIN TEMP:  58; 6HR MAX TEMP:  73;

$$

WAZ028-034-035-201300-
COLUMBIA BASIN

CITY           SKY/WX    TMP DP  RH WIND       PRES   REMARKS
EPHRATA        MOCLDY    66  50  56 MISG      29.71S
6HR MIN TEMP:  65; 6HR MAX TEMP:  77;

MOSES LAKE     MOCLDY    67  54  63 SW8       29.72S
6HR MIN TEMP:  67; 6HR MAX TEMP:  75;

PASCO          MOCLDY    69  56  62 SW8       29.75R
6HR MIN TEMP:  68; 6HR MAX TEMP:  78;

HERMISTON, OR  PTCLDY    67  55  65 SW12      29.79R
6HR MIN TEMP:  67; 6HR MAX TEMP:  76;

$$

WAZ036>038-201300-
NORTHEAST WASHINGTON

CITY           SKY/WX    TMP DP  RH WIND       PRES   REMARKS
SPOKANE GEIGER PTCLDY    62  50  64 SW15      29.75R
6HR MIN TEMP:  62; 6HR MAX TEMP:  68;

SPOKANE FELTS  CLEAR     64  51  62 CALM      29.76R
6HR MIN TEMP:  61; 6HR MAX TEMP:  65;

FAIRCHILD AFB  PTCLDY    60  51  70 SW12      29.76R
6HR MIN TEMP:  58; 6HR MAX TEMP:  66;

COEURDALENE,ID PTCLDY    61  54  77 SE9       29.76R
6HR MIN TEMP:  59; 6HR MAX TEMP:  63;

DEER PARK      CLEAR     52  50  93 NE3       29.76R
6HR MIN TEMP:  52; 6HR MAX TEMP:  65;

$$

WAZ029>033-201300-
SOUTHEAST WASHINGTON

CITY           SKY/WX    TMP DP  RH WIND       PRES   REMARKS
PULLMAN        MOCLDY    65  53  65 W9        29.82R
6HR MIN TEMP:  59; 6HR MAX TEMP:  68;

LEWISTON, ID   MOCLDY    70  58  65 CALM      29.75R
6HR MIN TEMP:  70; 6HR MAX TEMP:  77; 6HR PCP: TRACE;

WALLA WALLA    CLEAR     69  55  60 S13       29.81R
6HR MIN TEMP:  68; 6HR MAX TEMP:  79; 6HR PCP: TRACE;

PENDLETON, OR  PTCLDY    66  52  60 SW14      29.82R
6HR MIN TEMP:  66; 6HR MAX TEMP:  75;

$$


USA.gov is the U.S. government's official web portal to all federal, state and local government web resources and services.